Weather Data

Pearl Creek Farm: 8878 N Farm Road 75, Walnut Grove MO 65770

<== Previous Day (Wednesday 30 Mar 2011) | Next Day (Friday 01 Apr 2011) ==>

Summary Precipitation Data For Thursday 31 March 2011

ElementValueUnits
Precipitation0"
Notes(none)
SourcePearl Creek Farm

Summary Temperature Data For Thursday 31 March 2011

ElementValueUnits
High Temperature49 oF
Low Temperature34 oF
Average Temperature41 oF
High Humidity92 %
Low Humidity68 %
Average Humidity84 %
SourcePearl Creek Farm

Detail Temperature Data For Thursday 31 March 2011

Date / TimeTemp (F)RH (%)Dew Pt (F)Report Date / TimeSource
2011-03-31 00:00:00 40 85 35.7 2011-05-13 22:19:16 Pearl Creek Farm
2011-03-31 00:30:00 39 86 35.0 2011-05-13 22:19:16 Pearl Creek Farm
2011-03-31 01:00:00 39 86 35.0 2011-05-13 22:19:16 Pearl Creek Farm
2011-03-31 01:30:00 39 86 35.2 2011-05-13 22:19:16 Pearl Creek Farm
2011-03-31 02:00:00 39 87 35.3 2011-05-13 22:19:16 Pearl Creek Farm
2011-03-31 02:30:00 39 87 35.5 2011-05-13 22:19:16 Pearl Creek Farm
2011-03-31 03:00:00 38 87 34.5 2011-05-13 22:19:16 Pearl Creek Farm
2011-03-31 03:30:00 38 88 34.8 2011-05-13 22:19:16 Pearl Creek Farm
2011-03-31 04:00:00 37 88 33.8 2011-05-13 22:19:16 Pearl Creek Farm
2011-03-31 04:30:00 36 87 32.5 2011-05-13 22:19:16 Pearl Creek Farm
2011-03-31 05:00:00 35 89 32.0 2011-05-13 22:19:16 Pearl Creek Farm
2011-03-31 05:30:00 34 88 30.7 2011-05-13 22:19:16 Pearl Creek Farm
2011-03-31 06:00:00 34 89 31.1 2011-05-13 22:19:16 Pearl Creek Farm
2011-03-31 06:30:00 34 90 31.4 2011-05-13 22:19:16 Pearl Creek Farm
2011-03-31 07:00:00 34 90 31.4 2011-05-13 22:19:16 Pearl Creek Farm
2011-03-31 07:30:00 35 90 32.4 2011-05-13 22:19:16 Pearl Creek Farm
2011-03-31 08:00:00 35 90 32.4 2011-05-13 22:19:16 Pearl Creek Farm
2011-03-31 08:30:00 34 90 31.2 2011-05-13 22:19:16 Pearl Creek Farm
2011-03-31 09:00:00 34 91 31.7 2011-05-13 22:19:16 Pearl Creek Farm
2011-03-31 09:30:00 36 92 33.8 2011-05-13 22:19:16 Pearl Creek Farm
2011-03-31 10:00:00 37 92 34.8 2011-05-13 22:19:16 Pearl Creek Farm
2011-03-31 10:30:00 39 88 35.8 2011-05-13 22:19:16 Pearl Creek Farm
2011-03-31 11:00:00 42 86 38.0 2011-05-13 22:19:16 Pearl Creek Farm
2011-03-31 11:30:00 43 82 37.9 2011-05-13 22:19:16 Pearl Creek Farm
2011-03-31 12:00:00 44 79 37.8 2011-05-13 22:19:16 Pearl Creek Farm
2011-03-31 12:30:00 46 77 39.0 2011-05-13 22:19:16 Pearl Creek Farm
2011-03-31 13:00:00 46 73 37.7 2011-05-13 22:19:16 Pearl Creek Farm
2011-03-31 13:30:00 47 72 38.5 2011-05-13 22:19:16 Pearl Creek Farm
2011-03-31 14:00:00 48 71 38.9 2011-05-13 22:19:16 Pearl Creek Farm
2011-03-31 14:30:00 49 69 39.1 2011-05-13 22:19:16 Pearl Creek Farm
2011-03-31 15:00:00 49 68 38.7 2011-05-13 22:19:16 Pearl Creek Farm
2011-03-31 15:30:00 49 69 39.3 2011-05-13 22:19:16 Pearl Creek Farm
2011-03-31 16:00:00 49 71 40.0 2011-05-13 22:19:16 Pearl Creek Farm
2011-03-31 16:30:00 48 77 41.0 2011-05-13 22:19:16 Pearl Creek Farm
2011-03-31 17:00:00 47 79 40.8 2011-05-13 22:19:16 Pearl Creek Farm
2011-03-31 17:30:00 47 81 41.5 2011-05-13 22:19:16 Pearl Creek Farm
2011-03-31 18:00:00 46 84 41.3 2011-05-13 22:19:16 Pearl Creek Farm
2011-03-31 18:30:00 45 83 40.2 2011-05-13 22:19:16 Pearl Creek Farm
2011-03-31 19:00:00 44 86 39.9 2011-05-13 22:19:16 Pearl Creek Farm
2011-03-31 19:30:00 44 85 39.8 2011-05-13 22:19:16 Pearl Creek Farm
2011-03-31 20:00:00 43 85 38.8 2011-05-13 22:19:16 Pearl Creek Farm
2011-03-31 20:30:00 43 85 38.8 2011-05-13 22:19:16 Pearl Creek Farm
2011-03-31 21:00:00 43 87 39.3 2011-05-13 22:19:16 Pearl Creek Farm
2011-03-31 21:30:00 43 86 39.1 2011-05-13 22:19:16 Pearl Creek Farm
2011-03-31 22:00:00 43 88 39.6 2011-05-13 22:19:16 Pearl Creek Farm
2011-03-31 22:30:00 43 87 39.4 2011-05-13 22:19:16 Pearl Creek Farm
2011-03-31 23:00:00 42 89 38.9 2011-05-13 22:19:16 Pearl Creek Farm
2011-03-31 23:30:00 42 89 38.9 2011-05-13 22:19:16 Pearl Creek Farm

A total of 48 rows are displayed.